Weather History for KVLL - November, 2011

Change the Weather History Date:

Monday, November 28, 2011

  Actual Average (KDET) Record (KDET)
Temperature  
Mean Temperature 37 °F -  
Max Temperature 41 °F 41 °F 66 °F (1990)
Min Temperature 33 °F 30 °F 8 °F (1955)
Degree Days  
Heating Degree Days 28    
Moisture  
Dew Point 32 °F    
Average Humidity 84    
Maximum Humidity 93    
Minimum Humidity 70    
Precipitation  
Precipitation 0.00 in - - ()
Sea Level Pressure  
Sea Level Pressure 30.09 in    
Wind  
Wind Speed 7 mph (North)    
Max Wind Speed 12 mph    
Max Gust Speed -    
Visibility 9 miles    
Events Rain    
Averages and records for this station are not official NWS values.
T = Trace of Precipitation, MM = Missing Value Source: NWS Daily Summary

Daily Weather History Graph

Daily Weather History Graph

Search for Another Location

Airport or City:

Trip Planner

Search our weather history database for the weather conditions in past years. The results will help you decide how hot, cold, wet, or windy it might be!

Date:

Astronomy

Nov. 28, 2011 Rise Set
Actual Time 7:39 AM EST 5:01 PM EST
Civil Twilight 7:07 AM EST 5:33 PM EST
Nautical Twilight 6:33 AM EST 6:07 PM EST
Astronomical Twilight 5:59 AM EST 6:41 PM EST
Moon 10:47 AM EST 8:48 PM EST
Length of Visible Light 10h 25m
Length of Day
9h 22m
Waxing Crescent, 15% of the Moon is Illuminated
Nov 28
Waxing Crescent
Dec 2
First Quarter
Dec 10
Full
Dec 17
Last Quarter
Dec 24
New

Hourly Weather History & Observations

Time (EST) Temp. Windchill Dew Point Humidity Pressure Visibility Wind Dir Wind Speed Gust Speed Precip Events Conditions
12:15 AM 37.4 °F 34.9 °F 33.8 °F 87% 30.07 in 10.0 mi NNW 3.5 mph - N/A   Overcast
12:35 AM 37.4 °F 32.8 °F 32.0 °F 81% 30.06 in 10.0 mi NNW 5.8 mph - N/A   Overcast
12:54 AM 35.6 °F 29.9 °F 32.0 °F 87% 30.08 in 10.0 mi NW 6.9 mph - N/A   Overcast
1:15 AM 35.6 °F 28.6 °F 32.0 °F 87% 30.06 in 10.0 mi NNW 9.2 mph - N/A   Overcast
1:35 AM 35.6 °F 28.6 °F 32.0 °F 87% 30.06 in 10.0 mi NNW 9.2 mph - N/A   Overcast
1:55 AM 35.6 °F 29.2 °F 32.0 °F 87% 30.09 in 10.0 mi NW 8.1 mph - N/A   Overcast
2:15 AM 35.6 °F 30.7 °F 32.0 °F 87% 30.10 in 10.0 mi NNW 5.8 mph - N/A   Overcast
2:34 AM 35.6 °F 28.0 °F 32.0 °F 87% 30.09 in 10.0 mi NNW 10.4 mph - N/A   Overcast
2:55 AM 35.6 °F 29.9 °F 30.2 °F 81% 30.10 in 10.0 mi NNW 6.9 mph - N/A   Overcast
3:15 AM 35.6 °F 29.2 °F 30.2 °F 81% 30.10 in 10.0 mi NNW 8.1 mph - N/A   Overcast
3:34 AM 35.6 °F 30.7 °F 30.2 °F 81% 30.10 in 10.0 mi NNW 5.8 mph - N/A   Overcast
3:55 AM 35.6 °F 29.2 °F 30.2 °F 81% 30.10 in 10.0 mi North 8.1 mph - N/A   Overcast
4:15 AM 35.6 °F 27.5 °F 30.2 °F 81% 30.11 in 10.0 mi North 11.5 mph - N/A   Overcast
4:34 AM 35.6 °F 29.2 °F 30.2 °F 81% 30.12 in 10.0 mi North 8.1 mph - N/A   Overcast
4:55 AM 33.8 °F 26.4 °F 30.2 °F 87% 30.12 in 10.0 mi NNW 9.2 mph - N/A   Overcast
5:14 AM 33.8 °F 26.4 °F 30.2 °F 87% 30.12 in 10.0 mi North 9.2 mph - N/A   Mostly Cloudy
5:34 AM 33.8 °F 27.7 °F 30.2 °F 87% 30.12 in 10.0 mi North 6.9 mph - N/A   Scattered Clouds
5:55 AM 33.8 °F 27.7 °F 30.2 °F 87% 30.13 in 10.0 mi North 6.9 mph - N/A   Scattered Clouds
6:14 AM 33.8 °F 28.6 °F 30.2 °F 87% 30.14 in 10.0 mi North 5.8 mph - N/A   Scattered Clouds
6:35 AM 33.8 °F 29.6 °F 30.2 °F 87% 30.15 in 10.0 mi North 4.6 mph - N/A   Scattered Clouds
6:55 AM 33.8 °F 28.6 °F 30.2 °F 87% 30.14 in 10.0 mi NNE 5.8 mph - N/A   Scattered Clouds
7:14 AM 33.8 °F 26.4 °F 30.2 °F 87% 30.13 in 10.0 mi NNE 9.2 mph - N/A   Scattered Clouds
7:35 AM 33.8 °F 26.4 °F 30.2 °F 87% 30.14 in 10.0 mi NE 9.2 mph - N/A   Scattered Clouds
7:55 AM 33.8 °F 27.7 °F 30.2 °F 87% 30.14 in 10.0 mi NNE 6.9 mph - N/A   Clear
8:35 AM 35.6 °F 29.9 °F 30.2 °F 81% 30.15 in 10.0 mi North 6.9 mph - N/A   Mostly Cloudy
8:55 AM 35.6 °F 30.7 °F 30.2 °F 81% 30.15 in 10.0 mi NNE 5.8 mph - N/A   Overcast
9:15 AM 35.6 °F 29.9 °F 30.2 °F 81% 30.15 in 10.0 mi NNE 6.9 mph - N/A   Overcast
9:34 AM 35.6 °F 31.7 °F 32.0 °F 87% 30.16 in 10.0 mi North 4.6 mph - N/A   Overcast
9:55 AM 35.6 °F 29.9 °F 32.0 °F 87% 30.15 in 10.0 mi North 6.9 mph - N/A   Overcast
10:34 AM 37.4 °F 31.4 °F 32.0 °F 81% 30.14 in 10.0 mi NNE 8.1 mph - N/A   Overcast
10:55 AM 37.4 °F 32.8 °F 32.0 °F 81% 30.14 in 10.0 mi NE 5.8 mph - N/A   Overcast
11:15 AM 37.4 °F 32.1 °F 32.0 °F 81% 30.13 in 10.0 mi NE 6.9 mph - N/A   Overcast
11:35 AM 37.4 °F 32.8 °F 32.0 °F 81% 30.14 in 10.0 mi NNE 5.8 mph - N/A   Overcast
12:14 PM 39.2 °F 33.6 °F 32.0 °F 75% 30.11 in 10.0 mi NE 8.1 mph - N/A   Overcast
12:54 PM 39.2 °F 34.2 °F 32.0 °F 75% 30.10 in 10.0 mi NE 6.9 mph - N/A   Overcast
1:15 PM 39.2 °F 34.2 °F 32.0 °F 75% 30.09 in 10.0 mi North 6.9 mph - N/A   Overcast
1:34 PM 39.2 °F 33.6 °F 32.0 °F 75% 30.07 in 10.0 mi NE 8.1 mph - N/A   Overcast
1:55 PM 39.2 °F 34.2 °F 32.0 °F 75% 30.07 in 10.0 mi NNE 6.9 mph - N/A   Overcast
2:14 PM 41.0 °F 37.1 °F 32.0 °F 70% 30.07 in 10.0 mi NE 5.8 mph - N/A   Overcast
2:35 PM 41.0 °F 36.4 °F 33.8 °F 76% 30.06 in 10.0 mi NNE 6.9 mph - N/A   Overcast
2:55 PM 41.0 °F 35.8 °F 33.8 °F 76% 30.06 in 10.0 mi NNE 8.1 mph - N/A   Overcast
3:15 PM 41.0 °F 35.2 °F 33.8 °F 76% 30.06 in 10.0 mi NNE 9.2 mph - N/A   Overcast
3:35 PM 41.0 °F 36.4 °F 33.8 °F 76% 30.06 in 10.0 mi NNE 6.9 mph - N/A   Overcast
3:54 PM 41.0 °F 35.2 °F 33.8 °F 76% 30.07 in 10.0 mi NNE 9.2 mph - N/A   Overcast
4:15 PM 39.2 °F 33.6 °F 33.8 °F 81% 30.06 in 10.0 mi North 8.1 mph - N/A   Overcast
4:35 PM 39.2 °F 33.0 °F 33.8 °F 81% 30.05 in 10.0 mi NNE 9.2 mph - N/A   Overcast
4:55 PM 39.2 °F 32.5 °F 33.8 °F 81% 30.05 in 7.0 mi NNE 10.4 mph - N/A   Overcast
5:14 PM 39.2 °F 32.5 °F 33.8 °F 81% 30.04 in 10.0 mi NNE 10.4 mph - N/A   Overcast
5:35 PM 39.2 °F 34.2 °F 33.8 °F 81% 30.05 in 7.0 mi NNE 6.9 mph - N/A   Overcast
5:55 PM 39.2 °F 33.0 °F 33.8 °F 81% 30.05 in 10.0 mi NNE 9.2 mph - N/A   Overcast
6:35 PM 37.4 °F 32.1 °F 35.6 °F 93% 30.05 in 5.0 mi NNE 6.9 mph - N/A   Light Drizzle
6:55 PM 37.4 °F 32.1 °F 35.6 °F 93% 30.05 in 3.0 mi North 6.9 mph - N/A   Drizzle
7:14 PM 37.4 °F 31.4 °F 35.6 °F 93% 30.05 in 3.0 mi North 8.1 mph - N/A Rain Light Rain
7:35 PM 37.4 °F 31.4 °F 35.6 °F 93% 30.03 in 4.0 mi NNE 8.1 mph - N/A Rain Light Rain
8:14 PM 37.4 °F 30.8 °F 35.6 °F 93% 30.01 in 5.0 mi North 9.2 mph - N/A Rain Light Rain
8:35 PM 37.4 °F 32.1 °F 35.6 °F 93% 30.00 in 10.0 mi NNE 6.9 mph - N/A   Drizzle
9:15 PM 37.4 °F 30.8 °F 35.6 °F 93% 29.99 in 5.0 mi NNE 9.2 mph - N/A Rain Rain
9:35 PM 37.4 °F 30.8 °F 35.6 °F 93% 29.99 in 5.0 mi NNE 9.2 mph - N/A Rain Rain
9:54 PM 37.4 °F 32.8 °F 35.6 °F 93% 29.99 in 3.0 mi NNE 5.8 mph - N/A   Overcast
10:15 PM 37.4 °F 34.9 °F 35.6 °F 93% 30.00 in 2.5 mi NE 3.5 mph - N/A Rain Rain
10:35 PM 37.4 °F 32.8 °F 35.6 °F 93% 30.00 in 2.0 mi NNE 5.8 mph - N/A Rain Rain
10:54 PM 37.4 °F 32.8 °F 35.6 °F 93% 30.00 in 2.0 mi NE 5.8 mph - N/A Rain Rain
11:15 PM 37.4 °F 32.1 °F 35.6 °F 93% 29.98 in 3.0 mi NNE 6.9 mph - N/A Rain Rain
11:34 PM 37.4 °F 32.1 °F 35.6 °F 93% 29.97 in 5.0 mi North 6.9 mph - N/A Rain Rain